DW3471 Weather Reports


Display with metric or nautical units.
time (UTC)temp
F
wind
direction
speed
MPH
gust
MPH
rain 1hr
in
rain 24hr
in
rain mn
in
humidity
%
barometer
mb
20260507012617 63 290 0.0 2.0 0.00 0.08 0.08 85 1008.1
20260507011616 63 44 2.0 2.0 0.00 0.08 0.08 85 1007.7
20260507010615 62 50 1.0 4.0 0.00 0.08 0.08 86 1007.7
20260507005544 62 80 0.0 0.0 0.00 0.08 0.08 85 1008.1
20260507004543 62 80 1.0 1.0 0.00 0.08 0.08 85 1007.7
20260507003543 62 80 0.0 0.0 0.00 0.08 0.08 85 1007.4
20260507002542 62 80 0.0 3.0 0.00 0.08 0.08 85 1007.4
20260507001510 62 329 0.0 2.0 0.00 0.08 0.08 84 1007.0
20260507000510 62 60 1.0 2.0 0.00 0.08 0.08 84 1007.0
20260506235509 62 266 1.0 2.0 0.00 0.08 0.08 83 1007.0
20260506234509 63 267 0.0 1.0 0.00 0.08 0.08 82 1007.0
20260506233508 63 321 0.0 2.0 0.00 0.08 0.08 82 1007.3
20260506232436 63 5 1.0 1.0 0.00 0.08 0.08 81 1007.0
20260506231405 63 75 2.0 6.0 0.00 0.08 0.08 80 1007.0
20260506230404 64 41 0.0 1.0 0.00 0.08 0.08 81 1007.0
20260506225333 64 40 1.0 3.0 0.00 0.08 0.08 80 1007.0
20260506224332 64 8 2.0 3.0 0.00 0.08 0.08 79 1007.0
20260506223331 65 78 1.0 3.0 0.00 0.08 0.08 78 1007.0
20260506222331 66 255 3.0 6.0 0.00 0.08 0.08 77 1006.7
20260506221330 67 323 2.0 5.0 0.00 0.08 0.08 76 1007.0
20260506220330 68 320 1.0 3.0 0.00 0.08 0.08 75 1007.1
20260506215329 67 340 2.0 4.0 0.00 0.08 0.08 76 1006.7
20260506214329 65 326 2.0 6.0 0.00 0.08 0.08 78 1006.7
20260506213328 64 245 2.0 5.0 0.00 0.08 0.08 80 1006.7
20260506212327 65 245 1.0 6.0 0.00 0.08 0.08 79 1006.7
20260506211327 65 273 3.0 6.0 0.00 0.08 0.08 78 1006.3
20260506210255 64 308 2.0 4.0 0.00 0.08 0.08 79 1006.7
20260506205255 63 304 1.0 5.0 0.00 0.08 0.08 80 1006.3
20260506204254 63 341 2.0 7.0 0.00 0.08 0.08 81 1006.3
20260506203253 63 290 3.0 7.0 0.00 0.08 0.08 82 1006.3
20260506202151 62 327 2.0 7.0 0.00 0.08 0.08 83 1006.3
20260506201119 63 209 1.0 6.0 0.00 0.08 0.08 83 1006.3
20260506200118 63 335 2.0 5.0 0.00 0.08 0.08 85 1006.3
20260506195118 63 337 3.0 7.0 0.00 0.08 0.08 87 1006.7
20260506194046 62 355 1.0 4.0 0.00 0.08 0.08 88 1006.7
20260506193014 62 20 1.0 5.0 0.00 0.08 0.08 88 1007.0
20260506192014 62 249 2.0 6.0 0.00 0.08 0.08 88 1007.0
20260506191013 62 236 2.0 6.0 0.00 0.08 0.08 88 1007.0
20260506190012 62 95 2.0 7.0 0.00 0.08 0.08 88 1007.0
20260506185012 62 142 3.0 8.0 0.00 0.08 0.08 88 1007.0
20260506184011 62 289 4.0 8.0 0.00 0.08 0.08 89 1007.0
20260506183010 61 322 2.0 11.0 0.00 0.08 0.08 89 1007.3
20260506182010 61 74 2.0 9.0 0.00 0.08 0.08 89 1007.3
20260506181009 62 9 3.0 7.0 0.00 0.08 0.08 89 1007.3
20260506180009 62 251 3.0 7.0 0.00 0.08 0.08 89 1007.4
20260506175008 61 168 3.0 7.0 0.00 0.08 0.08 89 1007.4
20260506174008 61 342 2.0 6.0 0.00 0.08 0.08 89 1007.4
20260506173007 61 328 3.0 10.0 0.01 0.08 0.08 89 1007.4
20260506172007 62 279 3.0 6.0 0.01 0.08 0.08 89 1007.7
20260506171006 62 136 2.0 7.0 0.03 0.08 0.08 89 1007.4
20260506170006 62 93 3.0 5.0 0.03 0.08 0.08 90 1007.4
20260506165005 62 48 3.0 8.0 0.05 0.08 0.08 89 1007.4
20260506164004 62 63 2.0 6.0 0.05 0.08 0.08 89 1007.7
20260506163004 61 188 2.0 9.0 0.06 0.07 0.07 89 1007.7
20260506162003 61 62 1.0 2.0 0.06 0.07 0.07 89 1008.1
20260506161003 61 40 0.0 3.0 0.05 0.05 0.05 88 1008.8
20260506160002 61 37 1.0 3.0 0.05 0.05 0.05 88 1008.8
20260506155001 61 199 3.0 4.0 0.03 0.03 0.03 87 1009.1
20260506154001 61 0 1.0 2.0 0.03 0.03 0.03 86 1009.1
20260506153000 61 315 2.0 2.0 0.01 0.01 0.01 84 1008.8
20260506151959 61 82 1.0 5.0 0.01 0.01 0.01 82 1009.1
20260506150958 62 26 0.0 4.0 0.00 0.00 0.00 80 1009.1
20260506145958 62 333 2.0 5.0 0.00 0.00 0.00 78 1008.4
20260506144957 63 67 1.0 4.0 0.00 0.00 0.00 76 1008.8
20260506143957 64 101 2.0 8.0 0.00 0.00 0.00 74 1008.8
20260506142956 66 19 1.0 8.0 0.00 0.00 0.00 72 1009.2
20260506141956 67 307 2.0 7.0 0.00 0.00 0.00 71 1008.9
20260506140955 68 336 2.0 7.0 0.00 0.00 0.00 71 1008.9
20260506135954 68 341 3.0 9.0 0.00 0.00 0.00 70 1008.9
20260506134923 66 305 2.0 8.0 0.00 0.00 0.00 72 1008.5
20260506133922 66 162 2.0 6.0 0.00 0.00 0.00 72 1008.9
20260506132850 65 63 3.0 7.0 0.00 0.00 0.00 73 1008.9
20260506131818 65 299 1.0 7.0 0.00 0.00 0.00 73 1008.9
20260506130818 66 5 3.0 9.0 0.00 0.00 0.00 73 1009.2
20260506125746 65 59 3.0 7.0 0.00 0.00 0.00 73 1009.2
20260506124746 65 268 3.0 8.0 0.00 0.00 0.00 73 1008.9
20260506123745 64 274 3.0 10.0 0.00 0.00 0.00 74 1008.9
20260506122744 64 307 2.0 4.0 0.00 0.00 0.00 74 1008.9
20260506121744 63 31 2.0 8.0 0.00 0.00 0.00 74 1008.5
20260506120712 62 55 2.0 5.0 0.00 0.00 0.00 75 1008.9
20260506115712 62 335 3.0 6.0 0.00 0.00 0.00 76 1008.9
20260506114711 62 30 2.0 4.0 0.00 0.00 0.00 76 1008.9
20260506113711 62 24 2.0 5.0 0.00 0.00 0.00 76 1008.9
20260506112710 61 86 3.0 9.0 0.00 0.00 0.00 77 1008.5
20260506111710 61 107 3.0 8.0 0.00 0.00 0.00 76 1008.5
20260506110638 61 59 3.0 6.0 0.00 0.00 0.00 77 1008.5
20260506105637 61 0 2.0 6.0 0.00 0.00 0.00 78 1008.9
20260506104606 60 16 3.0 7.0 0.00 0.00 0.00 78 1008.5
20260506103605 60 49 4.0 7.0 0.00 0.00 0.00 78 1008.6
20260506102605 60 28 1.0 4.0 0.00 0.00 0.00 79 1008.6
20260506101604 60 38 2.0 4.0 0.00 0.00 0.00 79 1008.6
20260506100604 60 350 3.0 7.0 0.00 0.00 0.00 79 1008.6
20260506095603 60 18 1.0 8.0 0.00 0.00 0.00 79 1008.9
20260506094602 60 63 1.0 4.0 0.00 0.00 0.00 78 1008.6
20260506093602 60 98 2.0 6.0 0.00 0.00 0.00 78 1008.6
20260506092530 61 179 2.0 3.0 0.00 0.00 0.00 78 1008.6
20260506091529 61 181 2.0 8.0 0.00 0.00 0.00 78 1008.6
20260506090529 61 119 2.0 4.0 0.00 0.00 0.00 77 1008.6
20260506085528 61 61 3.0 6.0 0.00 0.00 0.00 78 1008.6
20260506084528 61 54 3.0 5.0 0.00 0.00 0.00 78 1008.6
20260506083527 61 342 1.0 6.0 0.00 0.00 0.00 78 1009.0
20260506082526 60 103 1.0 4.0 0.00 0.00 0.00 79 1009.0
20260506081525 61 83 1.0 6.0 0.00 0.00 0.00 78 1009.0
20260506080525 61 359 2.0 3.0 0.00 0.00 0.00 78 1009.0
20260506073523 61 27 3.0 5.0 0.00 0.00 0.00 78 1009.0
20260506072451 61 74 1.0 6.0 0.00 0.00 0.00 77 1009.3
20260506071451 62 355 1.0 4.0 0.00 0.00 0.00 77 1009.3
20260506070451 62 204 1.0 4.0 0.00 0.00 0.00 77 1009.3
20260506062448 63 56 0.0 3.0 0.00 0.00 0.00 75 1009.7
20260506061447 63 25 2.0 3.0 0.00 0.00 0.00 75 1009.7
20260506060447 63 287 1.0 3.0 0.00 0.00 0.00 75 1009.7
20260506051412 65 204 1.0 4.0 0.00 0.00 0.00 73 1010.0
20260506050412 66 313 1.0 4.0 0.00 0.00 0.00 72 1010.0
20260506044339 66 173 2.0 8.0 0.00 0.00 0.00 71 1010.0
20260506043338 67 46 2.0 8.0 0.00 0.00 0.00 71 1010.0
20260506042338 67 85 1.0 6.0 0.00 0.00 0.00 70 1010.0
20260506041337 67 281 2.0 6.0 0.00 0.00 0.00 69 1010.0
20260506040305 68 97 2.0 7.0 0.00 0.00 0.00 68 1010.0
20260506035306 68 41 2.0 7.0 0.00 0.00 0.00 68 1009.7
20260506034304 68 70 2.0 6.0 0.00 0.00 0.00 67 1010.0
20260506033304 68 15 1.0 4.0 0.00 0.00 0.00 67 1009.7
20260506032305 68 36 3.0 6.0 0.00 0.00 0.00 67 1010.0
20260506031303 68 35 2.0 5.0 0.00 0.00 0.00 66 1010.0
20260506030302 68 32 1.0 5.0 0.00 0.00 0.00 65 1010.0
20260506025230 68 182 2.0 8.0 0.00 0.00 0.00 64 1010.0
20260506024159 69 47 1.0 5.0 0.00 0.00 0.00 64 1010.0
20260506023158 69 283 2.0 5.0 0.00 0.00 0.00 63 1010.0
20260506022158 69 352 2.0 5.0 0.00 0.00 0.00 62 1010.0
20260506021157 69 65 1.0 6.0 0.00 0.00 0.00 62 1010.0
20260506020156 70 25 2.0 5.0 0.00 0.00 0.00 61 1009.9
20260506015156 70 125 3.0 7.0 0.00 0.00 0.00 59 1009.9
20260506014155 71 46 2.0 4.0 0.00 0.00 0.00 57 1009.9
20260506013154 71 268 2.0 5.0 0.00 0.00 0.00 55 1009.6